Skip Page Navigation
NASA JPL Caltech
NASA Logo - Jet Propulsion Laboratory + View the NASA Portal
+ Near-Earth Object (NEO) Program
Search JPL
JPL Home Earth Solar System Stars & Galaxies Technology
JPL Solar System Dynamics
BODIES ORBITS EPHEMERIDES TOOLS PHYSICAL DATA DISCOVERY FAQ SITE MAP
JPL Small-Body Database Browser
Search: [ help ]  
10747 Kothen (1989 CW7)
Classification: Main-belt Asteroid          SPK-ID: 2010747
Ephemeris | Orbit Diagram | Orbital Elements | Physical Parameters | Discovery Circumstances | Close-Approach Data ]

[ show orbit diagram ]
Orbital Elements at Epoch 2457000.5 (2014-Dec-09.0) TDB
Reference: JPL 13 (heliocentric ecliptic J2000)
 Element Value Uncertainty (1-sigma)   Units 
e .1164257659437904 4.7903e-08  
a 2.238314501916895 1.257e-08 AU
q 1.977717021608127 1.1194e-07 AU
i 3.495789358774976 5.8298e-06 deg
node 198.9205003368327 7.7036e-05 deg
peri 220.7126783465842 8.3036e-05 deg
M 303.3335059758627 3.3818e-05 deg
tp 2457193.032447801210
(2015-Jun-19.53244780)
0.0001159 JED
period 1223.151041935156
3.35
1.0304e-05
2.821e-08
d
yr
n .294321786645778 2.4793e-09 deg/d
Q 2.498911982225663 1.4034e-08 AU
  Orbit Determination Parameters
   # obs. used (total)      1030  
   data-arc span      11531 days (31.57 yr)  
   first obs. used      1983-05-07  
   last obs. used      2014-12-01  
   planetary ephem.      DE431  
   SB-pert. ephem.      SB431-BIG16  
   condition code      0  
   fit RMS      .49825  
   data source      ORB  
   producer      Otto Matic  
   solution date      2015-Jan-08 02:09:35  

Additional Information
 Earth MOID = .991057 AU 
 T_jup = 3.625 
[ show covariance matrix ]

Ephemeris | Orbit Diagram | Orbital Elements | Physical Parameters | Discovery Circumstances | Close-Approach Data ]

Physical Parameter Table
Parameter Symbol Value Units Sigma Reference Notes
absolute magnitude H 14.5 mag n/a MPO302132  

10747 Köthen           Discovered 1989 Feb. 1 by F. Borngen at Tautenburg.
Köthen is a Saxon-Anhaltian town. J. S. Bach was the princely conductor there during 1717-1723, becoming the friend and travel attendant of the art-loving duke Leopold of Anhalt-Köthen. In Köthen Bach composed most of his chamber music, including all six Brandenburg concerti.
NOTE: some special characters may not display properly (any characters within {} are an attempt to place the proper accent above a character)
Reference: 20000124/MPCPages.arcLast Updated: 2013-03-29

[ show close-approach data ]
Alternate Designations
 1989 CW7 = 1989 AS9 = 1998 WX7 
Ephemeris | Orbit Diagram | Orbital Elements | Physical Parameters | Discovery Circumstances | Close-Approach Data ]
ABOUT SSD CREDITS/AWARDS PRIVACY/COPYRIGHT GLOSSARY LINKS
FirstGov 2015-Jan-30 04:54 UT
(server date/time)  
NASA Home Page
Site Manager:   Donald K. Yeomans
Webmaster  Alan B. Chamberlin